SQ9NFI-4 Weather Reports


Display with metric or nautical units.
time (UTC)temp
F
wind
direction
speed
MPH
gust
MPH
rain 1hr
in
rain 24hr
in
rain mn
in
humidity
%
barometer
mb
20260508023243 52 332 2.0 2.0 0.20 0.00 0.40 98 1015.2
20260508022743 52 336 3.0 3.0 0.31 0.00 0.38 98 1015.2
20260508022243 52 314 4.0 5.0 0.41 0.00 0.37 98 1015.2
20260508021743 52 309 2.0 2.0 0.31 0.00 0.33 97 1015.2
20260508021243 52 54 4.0 6.0 0.25 0.00 0.30 97 1015.9
20260508020743 52 354 2.0 3.0 0.25 0.00 0.27 97 1015.9
20260508020243 52 10 2.0 3.0 0.20 0.00 0.25 97 1015.9
20260508015743 52 316 2.0 2.0 0.25 0.00 0.23 97 1015.9
20260508015243 52 335 5.0 6.0 0.31 0.00 0.22 97 1015.9
20260508014743 53 310 4.0 5.0 0.31 0.00 0.20 97 1015.9
20260508014243 53 321 2.0 3.0 0.31 0.00 0.17 97 1015.9
20260508013743 53 338 6.0 9.0 0.25 0.00 0.15 97 1015.2
20260508013243 53 333 6.0 6.0 0.15 0.00 0.11 97 1015.2
20260508012743 53 331 1.0 2.0 0.15 0.00 0.11 97 1015.2
20260508012243 53 342 5.0 6.0 0.10 0.00 0.09 97 1015.2
20260508011743 53 341 4.0 5.0 0.10 0.00 0.07 97 1015.2
20260508011243 53 339 2.0 3.0 0.10 0.00 0.07 98 1015.2
20260508010743 53 301 3.0 4.0 0.10 0.00 0.07 98 1015.2
20260508010243 53 335 6.0 7.0 0.15 0.00 0.05 98 1015.2
20260508005743 54 312 3.0 3.0 0.10 0.00 0.05 97 1015.2
20260508005243 54 325 1.0 2.0 0.05 0.00 0.03 98 1015.2
20260508004743 54 331 3.0 5.0 0.05 0.00 0.02 98 1015.2
20260508004243 54 338 3.0 5.0 0.05 0.00 0.02 98 1015.2
20260508003743 54 333 4.0 6.0 0.05 0.00 0.01 98 1015.2
20260508003243 55 333 4.0 7.0 0.10 0.00 0.01 98 1015.2
20260508002743 55 344 4.0 5.0 0.10 0.00 0.00 98 1015.2
20260508002243 55 339 2.0 2.0 0.05 0.00 0.00 98 1015.2
20260508001743 55 331 1.0 1.0 0.05 0.00 0.00 98 1015.2
20260508000243 55 329 1.0 2.0 0.00 0.00 0.00 98 1015.2
20260507235743 55 323 1.0 1.0 0.00 0.00 0.00 98 1015.2
20260507235243 55 321 0.0 0.0 0.00 0.00 0.00 98 1015.2
20260507234743 55 320 1.0 1.0 0.00 0.00 0.00 98 1015.2
20260507234243 55 325 0.0 0.0 0.00 0.00 0.00 98 1015.2
20260507233743 55 321 0.0 0.0 0.00 0.00 0.00 98 1015.2
20260507233243 55 319 1.0 1.0 0.00 0.00 0.00 98 1015.2
20260507232743 55 307 1.0 1.0 0.00 0.00 0.00 98 1015.2
20260507232243 55 321 0.0 0.0 0.00 0.00 0.00 98 1015.2
20260507231743 55 324 0.0 0.0 0.00 0.00 0.00 98 1015.2
20260507231243 55 321 1.0 2.0 0.00 0.00 0.00 98 1015.2
20260507230743 55 328 0.0 0.0 0.00 0.00 0.00 98 1015.2
20260507230243 55 332 0.0 0.0 0.00 0.00 0.00 98 1015.2
20260507225743 55 333 0.0 1.0 0.00 0.00 0.00 98 1015.2
20260507225243 55 332 0.0 0.0 0.00 0.00 0.00 98 1015.2
20260507224743 54 332 0.0 0.0 0.00 0.00 0.00 98 1015.2
20260507224243 55 332 0.0 0.0 0.00 0.00 0.00 98 1015.2
20260507223743 55 329 0.0 0.0 0.00 0.00 0.00 98 1015.2
20260507223243 55 320 0.0 0.0 0.00 0.00 0.00 98 1015.2
20260507222743 55 311 1.0 2.0 0.00 0.00 0.00 98 1015.2
20260507222242 55 332 0.0 0.0 0.00 0.00 0.00 98 1015.2
20260507221743 55 325 0.0 0.0 0.00 0.00 0.00 98 1015.2
20260507221243 55 324 0.0 0.0 0.00 0.00 0.00 98 1015.2
20260507220743 55 312 2.0 4.0 0.00 0.00 0.00 98 1015.2
20260507220242 55 319 1.0 2.0 0.00 0.00 0.00 97 1015.2
20260507215742 55 304 4.0 5.0 0.00 0.00 0.40 98 1015.2
20260507215242 55 306 3.0 4.0 0.00 0.00 0.40 98 1015.2
20260507214742 55 313 3.0 3.0 0.00 0.00 0.40 98 1014.9
20260507214243 55 322 0.0 0.0 0.00 0.00 0.40 98 1014.9
20260507213742 54 316 2.0 3.0 0.00 0.00 0.40 98 1014.9
20260507213243 55 324 0.0 1.0 0.00 0.00 0.40 98 1014.9
20260507212743 55 325 1.0 1.0 0.00 0.00 0.40 98 1014.9
20260507212243 54 334 0.0 0.0 0.00 0.00 0.40 97 1014.6
20260507211742 54 350 1.0 1.0 0.00 0.00 0.40 97 1014.6
20260507211242 54 349 1.0 2.0 0.00 0.00 0.40 97 1014.9
20260507210743 54 352 2.0 3.0 0.00 0.00 0.40 97 1014.9
20260507210243 54 345 0.0 2.0 0.00 0.00 0.40 97 1014.9
20260507205742 55 341 4.0 4.0 0.00 0.00 0.40 97 1014.6
20260507205243 54 341 2.0 3.0 0.00 0.00 0.40 97 1014.6
20260507204743 54 321 1.0 2.0 0.00 0.00 0.40 97 1014.6
20260507204243 54 324 0.0 1.0 0.00 0.00 0.40 97 1014.6
20260507203743 55 324 0.0 0.0 0.00 0.00 0.40 97 1014.2
20260507203243 54 324 0.0 0.0 0.00 0.00 0.40 96 1014.2
20260507202743 54 311 1.0 1.0 0.00 0.00 0.40 96 1014.2
20260507202243 54 330 0.0 0.0 0.00 0.00 0.40 96 1014.2
20260507201743 54 304 1.0 2.0 0.00 0.00 0.40 96 1014.2
20260507201243 54 319 1.0 1.0 0.00 0.00 0.40 96 1014.2
20260507200743 54 270 3.0 4.0 0.00 0.00 0.40 96 1014.2
20260507200243 55 348 1.0 2.0 0.00 0.00 0.40 96 1014.2
20260507195243 55 11 2.0 2.0 0.00 0.00 0.40 96 1014.2
20260507194742 55 353 2.0 3.0 0.05 0.00 0.40 96 1014.2
20260507194242 55 29 2.0 2.0 0.10 0.00 0.40 96 1014.2
20260507193742 55 352 2.0 3.0 0.20 0.00 0.40 96 1014.2
20260507193242 55 339 0.0 0.0 0.25 0.00 0.38 96 1014.2
20260507192743 56 359 0.0 1.0 0.10 0.00 0.36 96 1014.2
20260507192242 56 330 1.0 1.0 0.10 0.00 0.35 96 1014.6
20260507191742 56 337 0.0 0.0 0.15 0.00 0.34 96 1014.6
20260507191242 56 315 2.0 2.0 0.15 0.00 0.33 95 1014.2
20260507190742 56 295 0.0 1.0 0.05 0.00 0.31 95 1014.2
20260507190242 56 307 3.0 3.0 0.00 0.00 0.30 95 1014.2
20260507185742 56 305 2.0 3.0 0.00 0.00 0.30 95 1013.9
20260507185242 56 17 4.0 6.0 0.00 0.00 0.30 94 1013.9
20260507184742 56 13 2.0 3.0 0.00 0.00 0.30 93 1014.2
20260507184242 56 27 1.0 3.0 0.05 0.00 0.30 94 1014.2
20260507183742 56 60 3.0 9.0 0.10 0.00 0.30 94 1013.9
20260507183242 56 63 4.0 4.0 0.25 0.00 0.30 95 1013.9
20260507182742 56 348 2.0 3.0 0.37 0.00 0.30 95 1013.9
20260507182242 56 8 2.0 4.0 0.31 0.00 0.25 94 1013.9
20260507181742 56 344 2.0 3.0 0.63 0.00 0.23 94 1013.9
20260507181242 56 0 4.0 6.0 1.05 0.00 0.20 93 1013.9
20260507180742 57 349 2.0 4.0 0.69 0.00 0.11 92 1013.9
20260507180242 58 304 6.0 6.0 0.15 0.00 0.02 89 1013.9
20260507175742 58 358 1.0 3.0 0.00 0.00 0.00 87 1013.6
20260507175242 58 3 3.0 4.0 0.00 0.00 0.00 86 1013.6
20260507174742 58 337 2.0 3.0 0.00 0.00 0.00 87 1012.5
20260507174242 58 49 4.0 5.0 0.00 0.00 0.00 87 1012.5
20260507173742 58 359 2.0 2.0 0.00 0.00 0.00 86 1012.5
20260507173242 58 334 5.0 8.0 0.00 0.00 0.00 84 1012.5
20260507172742 58 339 0.0 0.0 0.00 0.00 0.00 86 1012.5
20260507172242 58 346 1.0 1.0 0.00 0.00 0.00 86 1012.2
20260507171742 58 65 2.0 2.0 0.00 0.00 0.00 86 1012.2
20260507171242 58 63 2.0 2.0 0.05 0.00 0.00 86 1012.2
20260507170742 58 22 1.0 1.0 0.05 0.00 0.00 84 1012.2
20260507170242 59 72 2.0 3.0 0.00 0.00 0.00 82 1012.2
20260507165742 60 40 4.0 6.0 0.00 0.00 0.00 79 1012.2
20260507165242 60 325 1.0 2.0 0.00 0.00 0.00 77 1012.2
20260507164742 60 350 1.0 1.0 0.00 0.00 0.00 76 1012.2
20260507164242 60 341 1.0 2.0 0.00 0.00 0.00 76 1012.2
20260507163742 60 6 6.0 10.0 0.00 0.00 0.00 76 1012.2
20260507163242 61 341 3.0 3.0 0.00 0.00 0.00 77 1012.2
20260507162742 61 0 3.0 3.0 0.00 0.00 0.00 78 1012.2
20260507162242 61 28 9.0 9.0 0.00 0.00 0.00 77 1011.9
20260507161742 62 340 4.0 4.0 0.00 0.00 0.00 76 1011.9
20260507161242 62 41 6.0 8.0 0.00 0.00 0.00 76 1012.2
20260507160742 62 19 4.0 5.0 0.00 0.00 0.00 75 1012.2
20260507160242 62 345 9.0 15.0 0.00 0.00 0.00 74 1012.2
20260507155742 63 315 13.0 19.0 0.00 0.00 0.00 71 1011.9
20260507155242 64 330 9.0 10.0 0.00 0.00 0.00 68 1011.9
20260507154742 64 308 1.0 1.0 0.00 0.00 0.00 69 1011.5
20260507154242 64 169 7.0 7.0 0.00 0.00 0.00 68 1011.5
20260507153742 64 210 6.0 8.0 0.00 0.00 0.00 68 1011.5
20260507153242 65 155 9.0 13.0 0.00 0.00 0.00 67 1011.5
20260507152742 65 204 9.0 9.0 0.00 0.00 0.00 66 1011.5
20260507152242 65 148 5.0 7.0 0.00 0.00 0.00 67 1011.5
20260507151742 65 127 6.0 8.0 0.00 0.00 0.00 67 1011.5
20260507151242 65 140 6.0 7.0 0.00 0.00 0.00 68 1011.5
20260507150742 65 180 10.0 14.0 0.00 0.00 0.00 68 1011.5
20260507150242 66 167 9.0 11.0 0.00 0.00 0.00 68 1011.5
20260507145742 65 134 5.0 6.0 0.00 0.00 0.00 69 1011.5
20260507145242 65 141 8.0 11.0 0.00 0.00 0.00 69 1011.5
20260507144742 65 164 12.0 13.0 0.00 0.00 0.00 69 1011.5
20260507144242 66 144 10.0 12.0 0.00 0.00 0.00 67 1011.5
20260507143742 67 134 15.0 15.0 0.00 0.00 0.00 65 1011.5
20260507143242 67 181 4.0 6.0 0.00 0.00 0.00 65 1011.5
20260507142742 67 144 4.0 7.0 0.00 0.00 0.00 64 1011.5
20260507142242 67 153 6.0 8.0 0.00 0.00 0.00 62 1011.5
20260507141742 68 141 6.0 6.0 0.00 0.00 0.00 60 1011.5
20260507141242 68 164 6.0 10.0 0.00 0.00 0.00 58 1011.5
20260507140742 69 167 8.0 8.0 0.00 0.00 0.00 55 1011.5
20260507140242 69 309 1.0 1.0 0.00 0.00 0.00 54 1011.5
20260507135742 69 294 1.0 1.0 0.00 0.00 0.00 55 1011.5
20260507135242 69 320 1.0 3.0 0.00 0.00 0.00 56 1011.5
20260507134742 69 318 2.0 3.0 0.00 0.00 0.00 55 1011.5
20260507134242 69 281 6.0 8.0 0.00 0.00 0.00 55 1011.5
20260507133742 70 233 6.0 8.0 0.00 0.00 0.00 54 1011.5
20260507133242 71 214 4.0 7.0 0.00 0.00 0.00 52 1011.5
20260507132742 71 272 5.0 6.0 0.00 0.00 0.00 53 1011.5
20260507132242 71 330 3.0 3.0 0.00 0.00 0.00 51 1011.5
20260507131742 71 322 6.0 8.0 0.00 0.00 0.00 51 1011.5
20260507131242 72 307 2.0 3.0 0.00 0.00 0.00 50 1011.5
20260507130742 72 337 5.0 7.0 0.00 0.00 0.00 49 1011.5
20260507130242 73 329 6.0 6.0 0.00 0.00 0.00 50 1011.5
20260507125742 73 311 0.0 1.0 0.00 0.00 0.00 51 1011.5
20260507125242 71 333 1.0 3.0 0.00 0.00 0.00 53 1011.5
20260507124742 70 324 4.0 4.0 0.00 0.00 0.00 52 1011.5
20260507124242 70 324 4.0 6.0 0.00 0.00 0.00 53 1011.5
20260507123742 69 320 6.0 10.0 0.00 0.00 0.00 53 1011.5
20260507123242 70 305 3.0 4.0 0.00 0.00 0.00 53 1011.5
20260507122742 70 271 4.0 5.0 0.00 0.00 0.00 51 1011.5
20260507122242 70 251 5.0 5.0 0.00 0.00 0.00 52 1011.9
20260507121742 71 318 2.0 4.0 0.00 0.00 0.00 53 1011.9
20260507121242 71 197 3.0 6.0 0.00 0.00 0.00 50 1011.5
20260507120742 71 285 7.0 12.0 0.00 0.00 0.00 52 1011.5
20260507120242 71 303 4.0 5.0 0.00 0.00 0.00 51 1011.5
20260507115742 71 331 2.0 9.0 0.00 0.00 0.00 50 1011.5
20260507115242 71 288 8.0 10.0 0.00 0.00 0.00 51 1011.5
20260507114742 70 265 4.0 6.0 0.00 0.00 0.00 52 1011.9
20260507114242 71 323 6.0 9.0 0.00 0.00 0.00 51 1011.9
20260507113742 71 300 3.0 5.0 0.00 0.00 0.00 54 1011.9
20260507113242 70 288 8.0 10.0 0.00 0.00 0.00 53 1011.9
20260507112742 70 330 7.0 9.0 0.00 0.00 0.00 53 1011.9
20260507112242 70 305 6.0 7.0 0.00 0.00 0.00 53 1011.9
20260507111742 69 202 4.0 5.0 0.00 0.00 0.00 55 1011.9
20260507111242 69 228 5.0 7.0 0.00 0.00 0.00 56 1011.9
20260507110742 69 329 9.0 10.0 0.00 0.00 0.00 56 1011.9
20260507110242 69 287 11.0 12.0 0.00 0.00 0.00 56 1011.9
20260507105742 69 317 2.0 5.0 0.00 0.00 0.00 57 1011.9
20260507105242 69 294 5.0 5.0 0.00 0.00 0.00 57 1011.9
20260507104742 69 281 7.0 7.0 0.00 0.00 0.00 59 1011.9
20260507104242 69 312 3.0 7.0 0.00 0.00 0.00 59 1011.9
20260507103905 69 298 4.0 8.0 0.00 0.00 0.00 58 1011.5
20260507103438 69 298 4.0 8.0 0.00 0.00 0.00 58 1011.5
20260507102938 69 298 6.0 9.0 0.00 0.00 0.00 59 1011.5
20260507102438 69 310 3.0 6.0 0.00 0.00 0.00 61 1011.5
20260507101938 69 242 7.0 10.0 0.00 0.00 0.00 60 1011.5
20260507101438 69 317 8.0 8.0 0.00 0.00 0.00 57 1011.5
20260507100938 69 289 13.0 13.0 0.00 0.00 0.00 57 1011.5
20260507100438 69 316 9.0 11.0 0.00 0.00 0.00 57 1011.5
20260507095938 69 278 2.0 6.0 0.00 0.00 0.00 62 1011.5
20260507095438 69 314 6.0 8.0 0.00 0.00 0.00 62 1011.5
20260507094938 69 278 7.0 12.0 0.00 0.00 0.00 60 1011.5
20260507094438 68 266 6.0 10.0 0.00 0.00 0.00 61 1011.5
20260507093938 68 331 6.0 10.0 0.00 0.00 0.00 63 1011.5
20260507090938 66 314 13.0 13.0 0.00 0.00 0.00 66 1011.2
20260507090438 66 294 6.0 13.0 0.00 0.00 0.00 66 1011.2
20260507085938 67 320 4.0 4.0 0.00 0.00 0.00 65 1011.2
20260507085438 67 315 11.0 11.0 0.00 0.00 0.00 63 1011.2
20260507084938 68 275 4.0 6.0 0.00 0.00 0.00 63 1011.2
20260507084438 68 301 13.0 19.0 0.00 0.00 0.00 62 1010.8
20260507083938 67 271 5.0 10.0 0.00 0.00 0.00 64 1010.8
20260507083438 67 271 4.0 6.0 0.00 0.00 0.00 65 1010.8
20260507082938 66 267 6.0 8.0 0.00 0.00 0.00 68 1010.8
20260507082438 65 279 9.0 13.0 0.00 0.00 0.00 67 1010.8
20260507081938 65 277 4.0 11.0 0.00 0.00 0.00 67 1010.8
20260507081438 65 333 12.0 15.0 0.00 0.00 0.00 67 1010.8
20260507080938 65 315 6.0 7.0 0.00 0.00 0.00 68 1010.5
20260507080438 65 280 9.0 13.0 0.00 0.00 0.00 68 1010.5
20260507075938 65 314 9.0 11.0 0.00 0.00 0.00 67 1010.5
20260507075438 65 281 8.0 12.0 0.00 0.00 0.00 68 1010.5
20260507074938 65 270 10.0 22.0 0.00 0.00 0.00 67 1010.5
20260507074438 66 279 4.0 6.0 0.00 0.00 0.00 67 1009.8
20260507073938 67 199 6.0 7.0 0.00 0.00 0.00 66 1009.8
20260507073438 66 251 7.0 10.0 0.00 0.00 0.00 67 1009.8
20260507072938 65 232 4.0 4.0 0.00 0.00 0.00 68 1009.8
20260507072438 65 270 6.0 10.0 0.00 0.00 0.00 68 1009.5
20260507071938 65 207 10.0 10.0 0.00 0.00 0.00 67 1009.5
20260507071438 65 296 7.0 7.0 0.00 0.00 0.00 68 1009.5
20260507070938 65 222 14.0 22.0 0.00 0.00 0.00 67 1009.5
20260507070438 65 273 6.0 10.0 0.00 0.00 0.00 68 1009.5
20260507065938 64 275 7.0 11.0 0.00 0.00 0.00 68 1009.5
20260507065438 64 235 13.0 13.0 0.00 0.00 0.00 68 1009.5
20260507064938 64 220 7.0 9.0 0.00 0.00 0.00 70 1009.5
20260507064438 64 265 7.0 7.0 0.00 0.00 0.00 69 1009.5
20260507063938 64 311 4.0 5.0 0.00 0.00 0.00 70 1009.5
20260507063438 63 271 1.0 6.0 0.00 0.00 0.00 71 1009.5
20260507062938 63 306 3.0 10.0 0.00 0.00 0.00 71 1009.5
20260507062438 63 178 7.0 7.0 0.00 0.00 0.00 70 1009.5
20260507061938 63 312 4.0 6.0 0.00 0.00 0.00 70 1009.5
20260507061438 63 253 3.0 3.0 0.00 0.00 0.00 71 1009.5
20260507060938 63 236 4.0 5.0 0.00 0.00 0.00 71 1009.5
20260507060438 63 318 5.0 8.0 0.00 0.00 0.00 70 1009.5
20260507055938 63 205 3.0 3.0 0.00 0.00 0.00 70 1009.1
20260507055438 63 262 4.0 6.0 0.00 0.00 0.00 69 1009.1
20260507054938 63 223 2.0 5.0 0.00 0.00 0.00 70 1009.1
20260507054438 63 327 1.0 3.0 0.00 0.00 0.00 70 1009.1
20260507053938 63 290 7.0 7.0 0.00 0.00 0.00 69 1009.1
20260507053438 62 296 4.0 4.0 0.00 0.00 0.00 70 1009.1
20260507052938 62 311 0.0 1.0 0.00 0.00 0.00 72 1009.1
20260507052438 61 270 4.0 8.0 0.00 0.00 0.00 73 1008.8
20260507051938 61 327 0.0 0.0 0.00 0.00 0.00 79 1008.8
20260507051438 61 327 0.0 0.0 0.00 0.00 0.00 79 1008.8
20260507050938 61 326 0.0 0.0 0.00 0.00 0.00 79 1008.8
20260507050438 61 326 0.0 0.0 0.00 0.00 0.00 77 1008.8
20260507045938 61 325 0.0 0.0 0.00 0.00 0.00 78 1008.8
20260507045438 61 325 0.0 0.0 0.00 0.00 0.00 77 1008.8
20260507044938 61 317 0.0 1.0 0.00 0.00 0.00 73 1008.8
20260507044438 61 325 0.0 0.0 0.00 0.00 0.00 74 1008.8
20260507043938 61 321 0.0 0.0 0.00 0.00 0.00 72 1008.8
20260507043438 62 316 0.0 1.0 0.00 0.00 0.00 71 1008.8
20260507042938 62 321 0.0 0.0 0.00 0.00 0.00 71 1008.8
20260507042438 62 319 0.0 0.0 0.00 0.00 0.00 71 1008.5
20260507041938 62 313 1.0 4.0 0.00 0.00 0.00 71 1008.5
20260507041438 61 230 4.0 4.0 0.00 0.00 0.00 71 1008.5
20260507040938 61 339 0.0 0.0 0.00 0.00 0.00 75 1008.5
20260507040443 60 327 1.0 1.0 0.00 0.00 0.00 76 1008.5
20260507035938 60 334 1.0 2.0 0.00 0.00 0.00 80 1008.5
20260507035438 60 329 1.0 1.0 0.00 0.00 0.00 79 1008.5
20260507034938 60 307 1.0 1.0 0.00 0.00 0.00 82 1008.5
20260507034438 60 338 1.0 1.0 0.00 0.00 0.00 80 1008.5
20260507033938 60 334 0.0 0.0 0.00 0.00 0.00 80 1008.5
20260507033438 60 344 0.0 1.0 0.00 0.00 0.00 81 1008.5
20260507032938 60 346 1.0 1.0 0.00 0.00 0.00 78 1008.5
20260507032438 60 329 1.0 2.0 0.00 0.00 0.00 79 1008.5
20260507031938 60 312 1.0 1.0 0.00 0.00 0.00 77 1008.5
20260507031438 61 331 0.0 1.0 0.00 0.00 0.00 73 1008.5
20260507030938 61 311 0.0 0.0 0.00 0.00 0.00 72 1008.5
20260507030438 61 314 1.0 1.0 0.00 0.00 0.00 71 1008.5
20260507025938 61 258 2.0 3.0 0.00 0.00 0.00 71 1008.5
20260507025438 61 156 7.0 7.0 0.00 0.00 0.00 72 1008.5
20260507024938 60 176 2.0 5.0 0.00 0.00 0.00 79 1008.5
20260507024438 60 306 1.0 1.0 0.00 0.00 0.00 79 1008.1
20260507023938 59 317 1.0 1.0 0.00 0.00 0.00 78 1008.1